NOAA NWS Hourly Roundups by Site

Regional Weather Roundup for San Diego, CA

To Select Another Site Choose from List

Select Site:  

000
ASUS46 KSGX 050511
RWRSGX

SAN DIEGO HOURLY WEATHER ROUNDUP
NATIONAL WEATHER SERVICE SAN DIEGO CA
900 PM PST SAT DEC 04 2021

NOTE: "FAIR" INDICATES FEW OR NO CLOUDS BELOW 12,000 FEET WITH NO
SIGNIFICANT WEATHER AND/OR OBSTRUCTIONS TO VISIBILITY.

CAZ042-043-060-061-PZZ750-775-050600-

GREATER SAN DIEGO AREA

CITY           SKY/WX    TMP DP  RH WIND       PRES   REMARKS
SAN DIEGO AP   CLOUDY    58  52  80 CALM      30.17R
BROWN FIELD    MOCLDY    54  50  86 CALM      30.16R
MIRAMAR MCAS   CLOUDY    56  52  86 NW5       30.15R
MONTGOMERY FLD CLOUDY    58  52  80 N5        30.15R
GILLESPIE FLD  CLOUDY    54  50  87 CALM      30.15S
LEMON GROVE      N/A     54  51  90 CALM      30.14R

$$

NORTH SAN DIEGO COUNTY

CITY           SKY/WX    TMP DP  RH WIND       PRES   REMARKS
CAMP PENDLETON CLEAR    N/A N/A N/A CALM      30.16R
OCEANSIDE AP   PTCLDY    48  48 100 CALM      30.15R FOG
OCEANSIDE HBR    N/A     56  53  91 N3        30.22R
VISTA            N/A     54  49  83 CALM      30.14R
CARLSBAD       CLOUDY    58  52  80 CALM      30.14R
ENCINITAS        N/A     58  54  88 CALM        N/A
LA JOLLA SCRIP   N/A     58  53  82 CALM      30.16R
FALLBROOK      FAIR      50  46  87 E3        30.16R FOG
ESCONDIDO        N/A     55  52  89 W2        30.16R
SAN MARCOS       N/A     56  52  87 NW2       30.18R
RANCHO BERNARD   N/A     53  49  87 CALM      30.16R
POWAY            N/A     52  49  89 CALM      30.18R

$$

EAST SAN DIEGO COUNTY

CITY           SKY/WX    TMP DP  RH WIND       PRES   REMARKS
RAMONA         FOG       50  50 100 N3        30.15R VSB 1/2
SANTEE           N/A     52  49  90 CALM      30.12R
LA MESA          N/A     53  49  87 CALM      30.11
EL CAJON         N/A     52  50  92 CALM      30.04R
ALPINE           N/A     47  43  84 CALM      30.34R

$$

ORANGE COUNTY AND THE LOS ANGELES BASIN

CITY           SKY/WX    TMP DP  RH WIND       PRES   REMARKS
JOHN WAYNE AP  CLEAR     58  50  75 CALM      30.15R HAZE
LAGUNA BEACH     N/A     51  49  93 CALM      30.14R
LAKE FOREST FR   N/A     50  45  84 CALM      30.04R
SANTA ANA        N/A     55  51  86 CALM      30.14R
HUNTINGTON BCH   N/A     51  49  92 CALM      30.15R
LOS ALAMITOS   FAIR      51  51 100 CALM      30.15R
FULLERTON      CLEAR     54  49  83 CALM      30.14R
LONG BEACH     CLEAR     54  50  86 CALM      30.15R
L.A. AP        PTCLDY    58  50  75 CALM      30.14R
L.A. DOWNTOWN  CLEAR     54  50  86 CALM      30.14R

$$

THE INLAND EMPIRE

CITY           SKY/WX    TMP DP  RH WIND       PRES   REMARKS
CORONA         CLEAR     46  46 100 CALM      30.15R FOG
UPLAND AP      FAIR      52  48  87 CALM      30.14R FOG
CHINO          CLEAR     50  46  86 CALM      30.15R FOG
ONTARIO        PTCLDY    53  46  77 CALM      30.14R HAZE
SAN BERNARDINO CLEAR     50  41  71 CALM      30.14R HAZE
RIVERSIDE AP   CLEAR     51  46  83 CALM      30.14R HAZE
MORENO VALLEY    N/A     51  47  85 CALM      30.09R
MARCH ARB      CLEAR     44  40  84 N3        30.14R HAZE
HORSETHIEF CYN   N/A     49  43  80 SW3       30.15R
PERRIS           N/A     54  48  81 CALM        N/A
LAKE ELSINORE    N/A     49  44  81 CALM      30.10R
HEMET AP       FAIR      48  40  75 CALM      30.15R HAZE
FRENCH VALLEY  FAIR      48  45  87 CALM      30.15R FOG
TEMECULA         N/A     53  51  94 CALM      30.11R

$$

SAN BERNARDINO AND RIVERSIDE COUNTY MOUNTAINS

CITY           SKY/WX    TMP DP  RH WIND       PRES   REMARKS
BIG BEAR AP    CLEAR     28  16  59 CALM      30.31R
BIG BEAR LAKE    N/A     30  21  68 CALM      30.30R
WRIGHTWOOD       N/A     42  15  33 CALM      30.16R
IDYLLWILD        N/A     40  25  56 CALM      30.11R
TORO PEAK        N/A     35  21  56 N14         N/A  WCI  26

$$

SOUTHERN DESERT INCLUDING THE COACHELLA VALLEY

CITY           SKY/WX    TMP DP  RH WIND       PRES   REMARKS
PALM SPRINGS   CLEAR     67  34  29 VRB3      30.08R
THOUSAND PALMS   N/A     70  32  24 SW5       30.02R
INDIO            N/A     69  40  34 W3        30.04R
THERMAL        CLEAR     51  39  63 CALM      30.05R
BORREGO AP     FAIR      59  28  31 W5        30.07R
OCOTILLO WELLS   N/A     69  35  28 NW3       29.97R
CANEBRAKE        N/A     67  31  26 CALM      30.01R
BLYTHE         CLEAR     57  20  23 NW3       30.05R
IMPERIAL AP    CLEAR     58  41  53 CALM      30.03R
EL CENTRO NAS  CLEAR     60  32  34 VRB6      30.05R
YUMA AZ        CLEAR     60  33  36 CALM      30.03R

$$

UPPER DESERT

CITY           SKY/WX    TMP DP  RH WIND       PRES   REMARKS
VICTORVILLE AP CLEAR     48  19  32 SW6       30.21S
HESPERIA         N/A     54  25  32 SW5       29.97R
APPLE VALLEY     N/A     38  24  58 CALM      30.26R
PALMDALE       CLEAR     47  24  40 S6        30.18R
LANCASTER      CLEAR     51  20  29 W3        30.18R
EDWARDS AFB    CLEAR     42  15  33 S8        30.15R
DAGGETT        CLEAR     48  18  30 NW5       30.15R
29 PALMS N     CLEAR     55  21  26 W12       30.20R
29 PALMS JTNP    N/A     56  24  29 CALM      30.06R
NEEDLES        CLEAR     60  23  24 W5        30.08R

$$

REGIONAL REPORTS

CITY           SKY/WX    TMP DP  RH WIND       PRES   REMARKS
SANTA BARBARA  CLEAR     47  45  93 CALM      30.13R
SANDBERG       CLEAR     53  20  27 NW22      30.24S
LAS VEGAS NV   CLEAR     56  22  26 SW3       30.13R
PHOENIX AZ     CLEAR     62  35  36 E6        30.02R
TIJUANA        MOCLDY    52  50  93 CALM      30.18R
ENSENADA NW      N/A     58  32  37 N1        30.12R

$$

OFFSHORE ISLANDS

CITY           SKY/WX    TMP DP  RH WIND       PRES   REMARKS
CATALINA ARPT  CLEAR     51  47  86 CALM      30.16R
SAN NICOLAS IS PTCLDY    53  49  86 NW16      30.16S

$$

MARINE AND OFFSHORE BUOY REPORTS

STATION/POSITION SKY/WX   TEMP    WIND        PRES    VSBY  SWELL
                          AIR SEA DIR/SP/G                  HT/PER/DIR
                          (F)     (DEG/KT/KT) (MB)    (MI)  (FT/S/D)
TANNER BANKS               58 62  320/ 17/ 21 1021.5R         7/310/14
S CLEMENTE BASIN           58 63  320/ 12/ 14 1021.0R         5/280/12
SAN NICOLAS IS.               62                N/A           5/310/14
SO. S. ROSA ISLA           56                 1021.8S         7/310/14
W. S. BARBARA CH              59  320/ 21/ 27 1020.8R         5/310/14
M. S. BARBARA CH           58 59   60/  4/  6 1020.9R         3/280/13
S. MONICA BASIN               61  300/  8/ 10 1020.6R         3/260/ 5
S PEDRO CHANNEL               61                N/A           2/260/13
OCEANSIDE OFFSHR              63                N/A           2/240/13
TORREY PINES OTR              63                N/A           2/270/13
SAN DIEGO BAY                 63              1020.7R
IMPERIAL BEACH             58 62                N/A           2/270/13

$$



 

View Past Reports for San Diego, CA.

Products Courtesy of NOAA-NWS
NWS Information Parsing Script by Ken True at Saratoga Weather - Script by SE Lincoln Weather.